Satellite: RAX-2
Catalog number: 37853
Epoch time: 12252.93187707
Element set: 0291
Inclination: 101.7041 deg
RA of node: 331.2613 deg
Eccentricity: 0.0244963
Arg of perigee: 112.1407 deg
Mean anomaly: 250.5963 deg
Mean motion: 14.80693775 rev/day
Decay rate: 1.0106e-04 rev/day^2
Epoch rev: 04679
Checksum: 293
Satellite: AUBIESAT
Catalog number: 37854
Epoch time: 12252.93112172
Element set: 0288
Inclination: 101.7100 deg
RA of node: 331.6248 deg
Eccentricity: 0.0246459
Arg of perigee: 111.3745 deg
Mean anomaly: 251.3906 deg
Mean motion: 14.81145951 rev/day
Decay rate: 1.0697e-04 rev/day^2
Epoch rev: 04678
Checksum: 292
Satellite: HRBE
Catalog number: 37855
Epoch time: 12252.88620683
Element set: 276
Inclination: 101.7069 deg
RA of node: 331.4841 deg
Eccentricity: 0.0245935
Arg of perigee: 111.5928 deg
Mean anomaly: 251.1644 deg
Mean motion: 14.80960681 rev/day
Decay rate: 1.0268e-04 rev/day^2
Epoch rev: 4677
Checksum: 313
Satellite: RS-39
Catalog number: 38051
Epoch time: 12252.22436520
Element set: 0682
Inclination: 051.6344 deg
RA of node: 123.7797 deg
Eccentricity: 0.0012193
Arg of perigee: 339.6812 deg
Mean anomaly: 120.6919 deg
Mean motion: 15.25614967 rev/day
Decay rate: 1.3620e-04 rev/day^2
Epoch rev: 03464
Checksum: 299
Satellite: E-STAR
Catalog number: 38079
Epoch time: 12252.09384964
Element set: 0489
Inclination: 069.4833 deg
RA of node: 125.5091 deg
Eccentricity: 0.0719411
Arg of perigee: 143.0269 deg
Mean anomaly: 222.2707 deg
Mean motion: 14.20028568 rev/day
Decay rate: 5.1276e-04 rev/day^2
Epoch rev: 02933
Checksum: 311
Satellite: GOLIAT
Catalog number: 38085
Epoch time: 12253.06169139
Element set: 461
Inclination: 069.4813 deg
RA of node: 123.8478 deg
Eccentricity: 0.0725133
Arg of perigee: 142.1967 deg
Mean anomaly: 223.2449 deg
Mean motion: 14.19022318 rev/day
Decay rate: 4.9059e-04 rev/day^2
Epoch rev: 2945
Checksum: 309
Satellite: HORYU-2
Catalog number: 38340
Epoch time: 12253.36361911
Element set: 136
Inclination: 098.1803 deg
RA of node: 193.3078 deg
Eccentricity: 0.0014041
Arg of perigee: 065.0160 deg
Mean anomaly: 295.2476 deg
Mean motion: 14.70155981 rev/day
Decay rate: 1.882e-05 rev/day^2
Epoch rev: 1684
Checksum: 284
Satellite: RS-40
Catalog number: 38736
Epoch time: 12252.07391090
Element set: 0047
Inclination: 082.4822 deg
RA of node: 331.0246 deg
Eccentricity: 0.0018049
Arg of perigee: 220.3799 deg
Mean anomaly: 139.5943 deg
Mean motion: 12.42646228 rev/day
Decay rate: 1.0e-07 rev/day^2
Epoch rev: 00520
Checksum: 272
/EX
More information about the Keps
mailing list